User: anonymous   Login
Location: Oshawa
(43.9000°N, 78.8670°W)
Time: 23:20:47
(UTC-04:00)
Language:

Explorer 11/Cluster Stage 4 - Orbit

View from above orbital plane
View from above orbital plane
View from above satellite
View from above satellite

Ground track
Ground track

The orbit data is extracted from the following two-line orbital elements,

1   107U 61013A   17118.55012529 +.00000489 +00000-0 +48486-4 0  9991
2   107 028.7856 170.1484 0549523 061.9208 303.5815 14.08287979804063
Epoch (UTC): 28 April 2017 13:12:10
Eccentricity: 0.0549523
inclination: 28.7856°
perigee height: 467 km
apogee height: 1263 km
right ascension of ascending node: 170.1484°
argument of perigee: 61.9208°
revolutions per day: 14.08287979
mean anomaly at epoch: 303.5815°
orbit number at epoch: 80406

The dashed part of the orbit path shows where the satellite is in the earth's shadow,  

DLR